TimeEDT,TemperatureF,Dew PointF,Humidity,Sea Level PressureIn,VisibilityMPH,Wind Direction,Wind SpeedMPH,Gust SpeedMPH,PrecipitationIn,Events,Conditions,WindDirDegrees,DateUTC
12:26 AM,62.6,60.8,94,30.02,3.0,Calm,Calm,-,N/A,,Overcast,0,2012-10-05 04:26:00
12:53 AM,62.1,60.1,93,30.03,2.5,Calm,Calm,-,N/A,,Overcast,0,2012-10-05 04:53:00
1:06 AM,62.6,60.8,94,30.02,3.0,Calm,Calm,-,N/A,,Overcast,0,2012-10-05 05:06:00
1:17 AM,62.6,60.8,94,30.03,1.8,WNW,3.5,-,N/A,,Overcast,300,2012-10-05 05:17:00
1:31 AM,62.6,60.8,94,30.02,0.5,West,4.6,-,N/A,Fog,Fog,270,2012-10-05 05:31:00
1:53 AM,62.1,61.0,96,30.02,0.5,Calm,Calm,-,N/A,Fog,Fog,0,2012-10-05 05:53:00
2:20 AM,62.6,60.8,94,30.01,0.2,Calm,Calm,-,N/A,Fog,Fog,0,2012-10-05 06:20:00
2:53 AM,62.1,61.0,96,30.00,0.2,Calm,Calm,-,N/A,Fog,Fog,0,2012-10-05 06:53:00
3:06 AM,62.6,60.8,94,30.00,0.2,Calm,Calm,-,N/A,Fog,Fog,0,2012-10-05 07:06:00
3:41 AM,62.6,60.8,94,30.00,0.2,Calm,Calm,-,N/A,Fog,Fog,0,2012-10-05 07:41:00
3:53 AM,62.1,61.0,96,30.00,0.5,Calm,Calm,-,N/A,Fog,Fog,0,2012-10-05 07:53:00
4:05 AM,62.6,60.8,94,30.00,2.0,WNW,3.5,-,N/A,,Overcast,300,2012-10-05 08:05:00
4:14 AM,62.6,60.8,94,30.00,5.0,Variable,3.5,-,N/A,,Overcast,0,2012-10-05 08:14:00
4:24 AM,62.6,60.8,94,30.00,7.0,Calm,Calm,-,N/A,,Overcast,0,2012-10-05 08:24:00
4:53 AM,62.1,60.1,93,30.00,6.0,WNW,3.5,-,N/A,,Overcast,300,2012-10-05 08:53:00
5:30 AM,62.6,60.8,94,30.00,5.0,NW,3.5,-,N/A,,Overcast,310,2012-10-05 09:30:00
5:53 AM,62.1,60.1,93,30.01,5.0,WNW,3.5,-,N/A,,Overcast,300,2012-10-05 09:53:00
6:53 AM,62.1,60.1,93,30.02,3.0,Calm,Calm,-,N/A,,Overcast,0,2012-10-05 10:53:00
7:07 AM,60.8,59.0,94,30.02,2.0,WNW,5.8,-,N/A,,Overcast,290,2012-10-05 11:07:00
7:53 AM,61.0,60.1,97,30.03,3.0,West,3.5,-,N/A,,Mostly Cloudy,260,2012-10-05 11:53:00
8:46 AM,62.6,60.8,94,30.03,5.0,Calm,Calm,-,N/A,,Scattered Clouds,0,2012-10-05 12:46:00
8:53 AM,64.0,60.1,87,30.03,7.0,Calm,Calm,-,N/A,,Partly Cloudy,0,2012-10-05 12:53:00
9:53 AM,68.0,60.1,76,30.02,10.0,Calm,Calm,-,N/A,,Clear,0,2012-10-05 13:53:00
10:53 AM,71.1,61.0,70,30.01,10.0,WSW,4.6,-,N/A,,Clear,240,2012-10-05 14:53:00
11:53 AM,73.9,57.9,57,29.99,10.0,WNW,6.9,-,N/A,,Partly Cloudy,290,2012-10-05 15:53:00
12:53 PM,75.2,59.0,57,29.98,10.0,WNW,8.1,-,N/A,,Clear,290,2012-10-05 16:53:00
1:53 PM,75.0,57.0,53,29.96,10.0,West,5.8,-,N/A,,Partly Cloudy,270,2012-10-05 17:53:00
2:53 PM,75.9,54.0,46,29.95,10.0,Variable,4.6,-,N/A,,Clear,0,2012-10-05 18:53:00
3:53 PM,77.0,55.0,47,29.93,10.0,Variable,3.5,-,N/A,,Clear,0,2012-10-05 19:53:00
4:53 PM,75.9,55.0,48,29.93,10.0,West,5.8,-,N/A,,Clear,260,2012-10-05 20:53:00
5:53 PM,69.1,60.1,73,29.94,10.0,SSW,4.6,-,N/A,,Clear,210,2012-10-05 21:53:00
6:53 PM,66.0,60.1,81,29.95,10.0,WSW,3.5,-,N/A,,Clear,240,2012-10-05 22:53:00
7:53 PM,62.1,59.0,90,29.96,9.0,SSW,3.5,-,N/A,,Clear,210,2012-10-05 23:53:00
8:53 PM,61.0,59.0,93,29.95,8.0,SSW,3.5,-,N/A,,Clear,200,2012-10-06 00:53:00
9:53 PM,61.0,57.0,87,29.95,10.0,SW,3.5,-,N/A,,Clear,220,2012-10-06 01:53:00
10:53 PM,63.0,57.9,84,29.94,10.0,WSW,4.6,-,N/A,,Clear,240,2012-10-06 02:53:00
11:53 PM,62.1,59.0,90,29.93,6.0,WSW,5.8,-,N/A,,Clear,250,2012-10-06 03:53:00